Location: Unspecified
(47.6567°N, 0.0000°E)
Time: 19:18:50
(UTC+00:00)

OTV 5 (USA 277) - Visible Passes

Search period start: 15 October 2019 00:00
Search period end: 25 October 2019 00:00
Orbit: 310 x 324 km, 54.5° (Epoch: 08 October)

Date Brightness Start Highest point End Pass type
(mag) Time Alt. Az. Time Alt. Az. Time Alt. Az.
15 Oct ? 03:53:05 14° NE 03:53:05 14° NE 03:53:50 10° NE visible
15 Oct ? 05:23:59 11° NW 05:26:31 45° NNE 05:29:10 10° E visible
16 Oct ? 04:07:19 20° NE 04:07:19 20° NE 04:08:50 10° ENE visible
16 Oct ? 05:38:22 10° WNW 05:41:07 85° SSW 05:43:51 10° SE visible
17 Oct ? 04:21:38 32° NE 04:21:38 32° NE 04:23:50 10° E visible
18 Oct ? 04:36:01 64° NE 04:36:01 64° NE 04:38:40 10° ESE visible
19 Oct ? 04:50:31 54° SSW 04:50:31 54° SSW 04:53:10 10° SE visible
20 Oct ? 05:05:08 22° SW 05:05:08 22° SW 05:07:09 10° SSE visible
